Location: Long Geng
(2.6167°N, 114.1333°E)
Time: 00:20:38
(UTC+00:00)

ASC 2 Rocket - Pass Details

Date: 14 May 2021
Orbit: 555 x 2344 km, 24.0° (Epoch: 19 June)

Event Time Altitude Azimuth Distance (km) Brightness Sun altitude
Rises 12:12:19 0° 304° (NW) 4,414 8.7 -25.5°
Reaches altitude 10° 12:16:02 10° 311° (NW) 3,122 7.5 -26.4°
Maximum altitude 12:22:50 40° 18° (NNE) 1,281 4.6 -28.0°
Enters shadow 12:23:12 39° 27° (NNE) 1,269 4.5 -28.0°
